| time (UTC) | temp F | wind direction | speed knots | gust knots | rain 1hr in | rain 24hr in | rain mn in | humidity % | barometer mb |
| 20260507190704 | 60 | 315 | 0.9 | 6.1 | 0.00 | 0.00 | 0.00 | 66 | 1020.1 |
| 20260507190204 | 60 | 283 | 0.9 | 2.6 | 0.00 | 0.00 | 0.00 | 67 | 1020.1 |
| 20260507183704 | 59 | 97 | 0.9 | 2.6 | 0.00 | 0.00 | 0.00 | 67 | 1020.4 |
| 20260507183204 | 59 | 140 | 1.7 | 6.1 | 0.00 | 0.00 | 0.00 | 68 | 1020.4 |
| 20260507180704 | 59 | 170 | 0.9 | 2.6 | 0.00 | 0.00 | 0.00 | 67 | 1020.5 |
| 20260507180205 | 58 | 261 | 1.7 | 6.1 | 0.00 | 0.00 | 0.00 | 68 | 1020.4 |
| 20260507173704 | 57 | 292 | 1.7 | 4.3 | 0.00 | 0.00 | 0.00 | 71 | 1020.7 |
| 20260507173205 | 57 | 176 | 0.9 | 5.2 | 0.00 | 0.00 | 0.00 | 72 | 1020.6 |
| 20260507163205 | 54 | 290 | 0.9 | 2.6 | 0.00 | 0.00 | 0.00 | 78 | 1020.7 |
| 20260507160705 | 53 | 291 | 2.6 | 5.2 | 0.00 | 0.00 | 0.00 | 79 | 1020.8 |
| 20260507160205 | 53 | 293 | 2.6 | 5.2 | 0.00 | 0.00 | 0.00 | 79 | 1020.8 |
| 20260507153705 | 54 | 253 | 1.7 | 2.6 | 0.00 | 0.00 | 0.00 | 79 | 1020.9 |
| 20260507153205 | 53 | 298 | 0.9 | 6.1 | 0.00 | 0.00 | 0.00 | 80 | 1020.9 |
| 20260507150703 | 54 | 263 | 0.9 | 2.6 | 0.00 | 0.00 | 0.00 | 79 | 1020.8 |
| 20260507150205 | 54 | 232 | 1.7 | 4.3 | 0.00 | 0.00 | 0.00 | 79 | 1020.9 |
| 20260507143703 | 53 | 250 | 0.9 | 2.6 | 0.00 | 0.00 | 0.00 | 79 | 1020.8 |
| 20260507143203 | 53 | 169 | 1.7 | 5.2 | 0.00 | 0.00 | 0.00 | 80 | 1020.8 |
| 20260507140704 | 52 | 184 | 0.9 | 4.3 | 0.00 | 0.00 | 0.00 | 81 | 1020.8 |
| 20260507140204 | 52 | 171 | 0.9 | 4.3 | 0.00 | 0.00 | 0.00 | 81 | 1020.8 |
| 20260507133704 | 51 | 117 | 0.0 | 1.7 | 0.00 | 0.00 | 0.00 | 82 | 1020.6 |
| 20260507133204 | 51 | 124 | 0.9 | 4.3 | 0.00 | 0.00 | 0.00 | 82 | 1020.6 |
| 20260507130704 | 52 | 196 | 1.7 | 2.6 | 0.00 | 0.00 | 0.00 | 81 | 1020.5 |
| 20260507130204 | 52 | 169 | 0.9 | 4.3 | 0.00 | 0.00 | 0.00 | 81 | 1020.5 |
| 20260507123703 | 52 | 173 | 1.7 | 2.6 | 0.00 | 0.00 | 0.00 | 80 | 1020.6 |
| 20260507123204 | 52 | 178 | 2.6 | 7.0 | 0.00 | 0.00 | 0.00 | 80 | 1020.6 |
| 20260507120704 | 52 | 157 | 2.6 | 5.2 | 0.00 | 0.00 | 0.00 | 81 | 1020.7 |
| 20260507120204 | 52 | 152 | 1.7 | 5.2 | 0.00 | 0.00 | 0.00 | 81 | 1020.7 |
| 20260507113703 | 52 | 162 | 1.7 | 4.3 | 0.00 | 0.00 | 0.00 | 81 | 1020.9 |
| 20260507110704 | 53 | 131 | 0.9 | 1.7 | 0.00 | 0.00 | 0.00 | 83 | 1021.1 |
| 20260507110204 | 53 | 126 | 0.9 | 2.6 | 0.00 | 0.00 | 0.00 | 84 | 1021.1 |
| 20260507103704 | 53 | 126 | 0.9 | 2.6 | 0.00 | 0.00 | 0.00 | 84 | 1021.1 |
| 20260507103204 | 53 | 156 | 0.9 | 2.6 | 0.00 | 0.00 | 0.00 | 84 | 1021.2 |
| 20260507100204 | 53 | 169 | 1.7 | 4.3 | 0.00 | 0.00 | 0.00 | 85 | 1021.3 |
| 20260507093204 | 53 | 153 | 1.7 | 5.2 | 0.00 | 0.00 | 0.00 | 86 | 1021.2 |
| 20260507090204 | 53 | 231 | 0.0 | 4.3 | 0.00 | 0.00 | 0.00 | 84 | 1021.1 |
| 20260507083703 | 54 | 121 | 0.0 | 2.6 | 0.00 | 0.00 | 0.00 | 84 | 1021.0 |
| 20260507083203 | 54 | 147 | 0.9 | 4.3 | 0.00 | 0.00 | 0.00 | 84 | 1021.0 |
| 20260507080704 | 53 | 216 | 0.9 | 2.6 | 0.00 | 0.00 | 0.00 | 85 | 1021.1 |
| 20260507080204 | 53 | 173 | 0.0 | 6.1 | 0.00 | 0.00 | 0.00 | 85 | 1021.1 |
| 20260507073703 | 53 | 253 | 0.9 | 2.6 | 0.00 | 0.00 | 0.00 | 87 | 1021.1 |
| 20260507073203 | 53 | 170 | 0.9 | 5.2 | 0.00 | 0.00 | 0.00 | 87 | 1021.1 |
| 20260507070704 | 53 | 173 | 1.7 | 8.7 | 0.00 | 0.00 | 0.00 | 88 | 1021.0 |
| 20260507070204 | 53 | 181 | 1.7 | 5.2 | 0.00 | 0.00 | 0.00 | 88 | 1021.0 |
| 20260507063705 | 54 | 262 | 0.9 | 2.6 | 0.00 | 0.00 | 0.00 | 87 | 1021.0 |
| 20260507063203 | 54 | 187 | 0.9 | 6.1 | 0.00 | 0.00 | 0.00 | 87 | 1021.0 |
| 20260507060704 | 54 | 171 | 1.7 | 4.3 | 0.00 | 0.00 | 0.00 | 87 | 1021.1 |
| 20260507053704 | 54 | 175 | 0.9 | 6.1 | 0.00 | 0.00 | 0.00 | 86 | 1021.1 |
| 20260507053205 | 55 | 237 | 1.7 | 7.8 | 0.00 | 0.00 | 0.00 | 85 | 1021.1 |
| 20260507050204 | 55 | 254 | 2.6 | 5.2 | 0.00 | 0.00 | 0.00 | 81 | 1021.0 |
| 20260507043204 | 56 | 313 | 0.9 | 8.7 | 0.00 | 0.00 | 0.00 | 81 | 1021.0 |
| 20260507040704 | 56 | 191 | 0.9 | 2.6 | 0.00 | 0.00 | 0.00 | 81 | 1021.0 |
| 20260507040204 | 56 | 278 | 0.9 | 6.1 | 0.00 | 0.00 | 0.00 | 81 | 1021.0 |
| 20260507033704 | 56 | 150 | 0.9 | 2.6 | 0.00 | 0.00 | 0.00 | 80 | 1020.7 |
| 20260507033206 | 56 | 212 | 1.7 | 7.0 | 0.00 | 0.00 | 0.00 | 79 | 1020.6 |
| 20260507030704 | 57 | 214 | 1.7 | 4.3 | 0.00 | 0.00 | 0.00 | 78 | 1020.5 |
| 20260507030203 | 57 | 57 | 2.6 | 7.8 | 0.00 | 0.00 | 0.00 | 78 | 1020.4 |
| 20260507023704 | 57 | 238 | 3.5 | 6.1 | 0.00 | 0.00 | 0.00 | 77 | 1020.3 |
| 20260507023203 | 58 | 209 | 1.7 | 6.1 | 0.00 | 0.00 | 0.00 | 77 | 1020.3 |
| 20260507020704 | 58 | 271 | 1.7 | 5.2 | 0.00 | 0.00 | 0.00 | 76 | 1020.2 |
| 20260507020204 | 58 | 216 | 2.6 | 6.1 | 0.00 | 0.00 | 0.00 | 76 | 1020.3 |
| 20260507013704 | 58 | 262 | 1.7 | 6.1 | 0.00 | 0.00 | 0.00 | 76 | 1020.2 |
| 20260507013205 | 58 | 260 | 0.9 | 10.4 | 0.00 | 0.00 | 0.00 | 76 | 1020.2 |
| 20260507010704 | 58 | 246 | 1.7 | 5.2 | 0.00 | 0.00 | 0.00 | 76 | 1020.3 |
| 20260507010204 | 58 | 252 | 1.7 | 8.7 | 0.00 | 0.00 | 0.00 | 76 | 1020.3 |
| 20260507003704 | 59 | 227 | 0.9 | 6.1 | 0.00 | 0.00 | 0.00 | 74 | 1020.4 |
| 20260507003205 | 59 | 207 | 1.7 | 7.8 | 0.00 | 0.00 | 0.00 | 74 | 1020.4 |
| 20260507000703 | 58 | 231 | 1.7 | 8.7 | 0.00 | 0.00 | 0.00 | 75 | 1020.5 |
| 20260506233704 | 59 | 267 | 3.5 | 10.4 | 0.00 | 0.00 | 0.00 | 74 | 1020.3 |
| 20260506233205 | 59 | 208 | 1.7 | 10.4 | 0.00 | 0.00 | 0.00 | 74 | 1020.5 |
| 20260506230703 | 58 | 107 | 0.9 | 5.2 | 0.00 | 0.00 | 0.00 | 75 | 1020.6 |
| 20260506230204 | 58 | 217 | 2.6 | 8.7 | 0.00 | 0.00 | 0.00 | 75 | 1020.5 |
| 20260506223705 | 58 | 179 | 2.6 | 6.1 | 0.00 | 0.00 | 0.00 | 74 | 1020.6 |
| 20260506220704 | 58 | 207 | 2.6 | 7.8 | 0.00 | 0.00 | 0.00 | 76 | 1020.8 |
| 20260506220204 | 57 | 230 | 2.6 | 7.8 | 0.00 | 0.00 | 0.00 | 76 | 1020.8 |
| 20260506213705 | 57 | 184 | 1.7 | 4.3 | 0.00 | 0.00 | 0.00 | 76 | 1020.8 |
| 20260506213204 | 57 | 180 | 1.7 | 7.0 | 0.00 | 0.00 | 0.00 | 77 | 1020.8 |
| 20260506210703 | 57 | 217 | 1.7 | 8.7 | 0.00 | 0.00 | 0.00 | 77 | 1020.8 |
| 20260506210204 | 57 | 191 | 2.6 | 8.7 | 0.00 | 0.00 | 0.00 | 77 | 1020.8 |
| 20260506203704 | 57 | 191 | 1.7 | 2.6 | 0.00 | 0.00 | 0.00 | 79 | 1020.7 |
| 20260506203204 | 57 | 210 | 1.7 | 7.0 | 0.00 | 0.00 | 0.00 | 78 | 1020.7 |
| 20260506200704 | 56 | 249 | 0.9 | 4.3 | 0.00 | 0.00 | 0.00 | 80 | 1020.6 |
| 20260506200204 | 56 | 287 | 0.9 | 6.1 | 0.00 | 0.00 | 0.00 | 80 | 1020.6 |
| 20260506193204 | 56 | 263 | 0.9 | 6.1 | 0.00 | 0.00 | 0.00 | 83 | 1020.5 |